�������l�o���
Date,Time,MP-1(��Sv/h),MP-2(��Sv/h),MP-3(��Sv/h),MP-4(��Sv/h),MP-5(��Sv/h),MP-6(��Sv/h),MP-7(��Sv/h),MP-8(��Sv/h),����,����(m/s),���J
2018/04/29,00:00,0.861,1.415,0.889,1.641,1.137,0.483,0.846,0.809,��쐼,8.9,��
2018/04/29,00:10,0.860,1.414,0.887,1.641,1.137,0.483,0.849,0.809,��쐼,9.3,��
2018/04/29,00:20,0.860,1.411,0.889,1.641,1.135,0.484,0.847,0.810,��쐼,9.5,��
2018/04/29,00:30,0.860,1.412,0.891,1.643,1.138,0.485,0.847,0.808,��쐼,9.4,��
2018/04/29,00:40,0.861,1.415,0.890,1.642,1.137,0.483,0.847,0.810,��쐼,9.3,��
2018/04/29,00:50,0.860,1.413,0.889,1.643,1.136,0.483,0.845,0.811,��쐼,9.5,��
2018/04/29,01:00,0.862,1.410,0.889,1.643,1.137,0.485,0.847,0.809,��쐼,8.8,��
2018/04/29,01:10,0.859,1.411,0.889,1.642,1.136,0.484,0.847,0.810,��쐼,8.2,��
2018/04/29,01:20,0.860,1.413,0.888,1.643,1.137,0.483,0.845,0.810,��쐼,7.3,��
2018/04/29,01:30,0.861,1.411,0.889,1.640,1.137,0.485,0.848,0.811,��쐼,7.0,��
2018/04/29,01:40,0.862,1.414,0.890,1.640,1.137,0.483,0.847,0.810,��쐼,8.0,��
2018/04/29,01:50,0.860,1.412,0.889,1.639,1.134,0.483,0.848,0.811,��쐼,6.9,��
2018/04/29,02:00,0.860,1.413,0.888,1.642,1.132,0.484,0.846,0.812,��쐼,6.3,��
2018/04/29,02:10,0.862,1.411,0.889,1.640,1.136,0.483,0.845,0.809,��쐼,5.5,��
2018/04/29,02:20,0.860,1.410,0.889,1.644,1.135,0.483,0.846,0.809,��쐼,6.8,��
2018/04/29,02:30,0.861,1.410,0.889,1.641,1.135,0.482,0.845,0.810,��쐼,9.1,��
2018/04/29,02:40,0.860,1.412,0.889,1.639,1.134,0.484,0.846,0.811,��쐼,8.3,��
2018/04/29,02:50,0.860,1.411,0.887,1.639,1.133,0.483,0.847,0.810,��쐼,8.9,��
2018/04/29,03:00,0.861,1.410,0.888,1.640,1.135,0.483,0.844,0.811,��쐼,8.5,��
2018/04/29,03:10,0.861,1.411,0.889,1.641,1.135,0.484,0.846,0.811,��쐼,8.6,��
2018/04/29,03:20,0.860,1.411,0.888,1.641,1.136,0.482,0.846,0.812,��쐼,8.9,��
2018/04/29,03:30,0.862,1.412,0.889,1.641,1.134,0.482,0.847,0.810,��쐼,9.1,��
2018/04/29,03:40,0.861,1.411,0.890,1.639,1.132,0.483,0.846,0.810,��쐼,9.0,��
2018/04/29,03:50,0.860,1.411,0.889,1.640,1.135,0.481,0.847,0.811,��쐼,10.2,��
2018/04/29,04:00,0.861,1.409,0.891,1.641,1.132,0.483,0.844,0.810,��쐼,10.8,��
2018/04/29,04:10,0.860,1.412,0.890,1.641,1.135,0.483,0.847,0.811,��쐼,10.3,��
2018/04/29,04:20,0.861,1.409,0.889,1.640,1.136,0.482,0.847,0.809,��쐼,9.2,��
2018/04/29,04:30,0.861,1.411,0.890,1.640,1.136,0.483,0.847,0.812,�쐼,8.7,��
2018/04/29,04:40,0.860,1.412,0.891,1.642,1.137,0.482,0.848,0.810,�쐼,9.0,��
2018/04/29,04:50,0.862,1.411,0.887,1.641,1.136,0.481,0.846,0.809,�쐼,9.2,��
2018/04/29,05:00,0.861,1.410,0.888,1.641,1.136,0.483,0.848,0.810,�쐼,8.1,��
2018/04/29,05:10,0.859,1.409,0.891,1.641,1.135,0.481,0.846,0.810,�쐼,7.1,��
2018/04/29,05:20,0.860,1.408,0.890,1.642,1.135,0.483,0.847,0.810,�쐼,7.2,��
2018/04/29,05:30,0.860,1.412,0.889,1.642,1.135,0.483,0.847,0.810,�쐼,8.2,��
2018/04/29,05:40,0.859,1.413,0.892,1.642,1.135,0.484,0.847,0.809,�쐼,6.3,��
2018/04/29,05:50,0.861,1.404,0.890,1.643,1.133,0.483,0.847,0.812,�쐼,5.9,��
2018/04/29,06:00,0.859,1.412,0.891,1.641,1.135,0.484,0.847,0.810,�쐼,5.4,��
2018/04/29,06:10,0.860,1.412,0.889,1.642,1.137,0.482,0.847,0.810,���쐼,6.2,��
2018/04/29,06:20,0.862,1.413,0.889,1.640,1.136,0.483,0.847,0.811,�쐼,6.4,��
2018/04/29,06:30,0.861,1.413,0.892,1.641,1.138,0.483,0.848,0.812,�쐼,5.0,��
2018/04/29,06:40,0.862,1.414,0.891,1.640,1.137,0.484,0.848,0.811,�쐼,4.1,��
2018/04/29,06:50,0.861,1.412,0.892,1.641,1.136,0.483,0.846,0.810,�쐼,4.4,��
2018/04/29,07:00,0.862,1.411,0.892,1.643,1.136,0.484,0.849,0.810,��쐼,2.6,��
2018/04/29,07:10,0.862,1.408,0.890,1.644,1.138,0.481,0.848,0.811,��쐼,3.3,��
2018/04/29,07:20,0.862,1.408,0.891,1.643,1.136,0.482,0.847,0.810,��쐼,4.7,��
2018/04/29,07:30,0.862,1.411,0.891,1.643,1.135,0.481,0.847,0.812,�쐼,4.1,��
2018/04/29,07:40,0.863,1.412,0.893,1.643,1.134,0.482,0.849,0.812,��쐼,3.4,��
2018/04/29,07:50,0.861,1.412,0.894,1.643,1.138,0.483,0.848,0.810,��,2.3,��
2018/04/29,08:00,0.861,1.413,0.892,1.646,1.137,0.483,0.849,0.812,��,2.9,��
2018/04/29,08:10,0.863,1.410,0.891,1.644,1.135,0.483,0.849,0.810,��,3.0,��
2018/04/29,08:20,0.864,1.412,0.891,1.642,1.138,0.483,0.848,0.810,��,3.2,��
2018/04/29,08:30,0.861,1.412,0.892,1.644,1.137,0.485,0.847,0.810,��,3.6,��
2018/04/29,08:40,0.861,1.413,0.891,1.646,1.136,0.484,0.846,0.807,��,3.8,��
2018/04/29,08:50,0.861,1.412,0.889,1.644,1.136,0.485,0.848,0.807,��,3.6,��
2018/04/29,09:00,0.860,1.413,0.892,1.646,1.136,0.484,0.847,0.809,��,3.5,��
2018/04/29,09:10,0.862,1.412,0.890,1.646,1.135,0.484,0.848,0.809,��쓌,3.3,��
2018/04/29,09:20,0.862,1.418,0.891,1.645,1.137,0.485,0.848,0.808,��,3.9,��
2018/04/29,09:30,0.863,1.416,0.890,1.648,1.136,0.485,0.848,0.809,��,4.5,��
2018/04/29,09:40,0.864,1.417,0.891,1.645,1.138,0.484,0.850,0.808,��,5.0,��
2018/04/29,09:50,0.864,1.417,0.890,1.647,1.137,0.482,0.848,0.808,��,3.4,��
2018/04/29,10:00,0.865,1.421,0.893,1.645,1.141,0.484,0.849,0.810,��,5.0,��
2018/04/29,10:10,0.867,1.418,0.892,1.645,1.138,0.484,0.850,0.809,��,5.9,��
2018/04/29,10:20,0.867,1.418,0.894,1.646,1.139,0.484,0.849,0.811,��,5.5,��
2018/04/29,10:30,0.865,1.418,0.892,1.645,1.142,0.485,0.850,0.809,��쓌,5.4,��
2018/04/29,10:40,0.865,1.415,0.893,1.645,1.142,0.484,0.850,0.809,��,7.7,��
2018/04/29,10:50,0.863,1.417,0.892,1.647,1.141,0.485,0.850,0.810,��,10.5,��
2018/04/29,11:00,0.866,1.419,0.892,1.646,1.140,0.484,0.849,0.810,��쓌,11.3,��
2018/04/29,11:10,0.864,1.419,0.890,1.644,1.143,0.485,0.849,0.810,��쓌,10.8,��
2018/04/29,11:20,0.865,1.419,0.893,1.645,1.142,0.483,0.849,0.810,��,9.9,��
2018/04/29,11:30,0.865,1.418,0.894,1.648,1.142,0.484,0.850,0.809,��,10.5,��
2018/04/29,11:40,0.864,1.421,0.894,1.646,1.143,0.485,0.850,0.808,��쓌,10.5,��
2018/04/29,11:50,0.865,1.422,0.893,1.645,1.143,0.485,0.849,0.810,��쓌,12.4,��
2018/04/29,12:00,0.865,1.421,0.894,1.647,1.146,0.483,0.849,0.808,��쓌,12.4,��
2018/04/29,12:10,0.866,1.421,0.894,1.647,1.144,0.484,0.849,0.810,��쓌,12.7,��
2018/04/29,12:20,0.866,1.423,0.895,1.643,1.145,0.486,0.850,0.810,��쓌,12.1,��
2018/04/29,12:30,0.866,1.420,0.895,1.647,1.146,0.486,0.851,0.809,��쓌,12.0,��
2018/04/29,12:40,0.866,1.421,0.896,1.647,1.144,0.484,0.851,0.810,��쓌,11.7,��
2018/04/29,12:50,0.865,1.424,0.894,1.648,1.147,0.484,0.850,0.810,��,11.3,��
2018/04/29,13:00,0.866,1.423,0.894,1.648,1.146,0.485,0.850,0.810,��,12.4,��
2018/04/29,13:10,0.865,1.423,0.895,1.648,1.145,0.485,0.849,0.810,��,13.1,��
2018/04/29,13:20,0.866,1.425,0.892,1.649,1.148,0.485,0.850,0.809,��,13.0,��
2018/04/29,13:30,0.866,1.423,0.893,1.646,1.147,0.485,0.849,0.810,��,9.2,��
2018/04/29,13:40,0.869,1.424,0.896,1.649,1.148,0.482,0.850,0.811,��,10.6,��
2018/04/29,13:50,0.867,1.426,0.894,1.649,1.148,0.484,0.852,0.810,��,10.5,��
2018/04/29,14:00,0.869,1.424,0.895,1.649,1.148,0.484,0.851,0.809,��쓌,10.3,��
2018/04/29,14:10,0.867,1.425,0.895,1.649,1.147,0.485,0.849,0.810,��쓌,9.6,��
2018/04/29,14:20,0.867,1.425,0.895,1.647,1.147,0.486,0.849,0.810,��쓌,12.4,��
2018/04/29,14:30,0.868,1.422,0.896,1.648,1.145,0.486,0.850,0.811,��,14.7,��
2018/04/29,14:40,0.867,1.425,0.897,1.650,1.147,0.484,0.852,0.811,��쓌,14.6,��
2018/04/29,14:50,0.867,1.424,0.897,1.651,1.153,0.484,0.850,0.810,��쓌,14.7,��
2018/04/29,15:00,0.866,1.426,0.895,1.650,1.148,0.484,0.849,0.811,��,14.9,��
2018/04/29,15:10,0.866,1.426,0.896,1.651,1.149,0.484,0.850,0.809,��,14.4,��
2018/04/29,15:20,0.868,1.424,0.897,1.648,1.150,0.486,0.851,0.810,��쓌,12.0,��
2018/04/29,15:30,0.868,1.423,0.895,1.648,1.150,0.487,0.848,0.809,��,12.4,��
2018/04/29,15:40,0.867,1.426,0.896,1.651,1.149,0.484,0.849,0.810,��,10.8,��
2018/04/29,15:50,0.868,1.425,0.898,1.651,1.148,0.484,0.850,0.812,��,9.4,��
2018/04/29,16:00,0.868,1.424,0.898,1.652,1.149,0.486,0.851,0.811,��,11.3,��
2018/04/29,16:10,0.870,1.427,0.896,1.650,1.149,0.484,0.853,0.810,��,11.7,��
2018/04/29,16:20,0.869,1.424,0.896,1.650,1.150,0.484,0.851,0.809,��,12.2,��
2018/04/29,16:30,0.869,1.425,0.895,1.652,1.150,0.485,0.851,0.810,��,12.1,��
2018/04/29,16:40,0.870,1.422,0.898,1.653,1.151,0.484,0.852,0.811,��,12.4,��
2018/04/29,16:50,0.868,1.423,0.898,1.651,1.148,0.485,0.852,0.810,��,12.0,��
2018/04/29,17:00,0.870,1.424,0.897,1.650,1.148,0.485,0.851,0.810,��,10.2,��
2018/04/29,17:10,0.868,1.426,0.899,1.651,1.148,0.486,0.851,0.811,��,10.6,��
2018/04/29,17:20,0.868,1.425,0.896,1.651,1.147,0.485,0.848,0.811,��,9.3,��
2018/04/29,17:30,0.867,1.427,0.897,1.649,1.149,0.484,0.850,0.811,��,11.0,��
2018/04/29,17:40,0.868,1.425,0.897,1.653,1.148,0.482,0.851,0.811,��,9.4,��
2018/04/29,17:50,0.866,1.425,0.897,1.650,1.150,0.484,0.850,0.812,��,10.5,��
2018/04/29,18:00,0.869,1.424,0.896,1.650,1.149,0.483,0.849,0.812,��,10.3,��
2018/04/29,18:10,0.864,1.424,0.896,1.652,1.147,0.483,0.851,0.813,��,9.4,��
2018/04/29,18:20,0.868,1.422,0.894,1.655,1.148,0.484,0.848,0.813,��,10.8,��
2018/04/29,18:30,0.867,1.421,0.897,1.653,1.147,0.483,0.850,0.814,��,10.2,��
2018/04/29,18:40,0.867,1.422,0.894,1.653,1.147,0.483,0.850,0.813,��,10.2,��
2018/04/29,18:50,0.868,1.422,0.896,1.654,1.148,0.485,0.850,0.813,��,10.2,��
2018/04/29,19:00,0.868,1.422,0.895,1.653,1.149,0.483,0.850,0.815,��,8.7,��
2018/04/29,19:10,0.867,1.421,0.896,1.656,1.148,0.485,0.851,0.812,��,8.0,��
2018/04/29,19:20,0.867,1.419,0.894,1.653,1.150,0.481,0.850,0.812,��,9.1,��
2018/04/29,19:30,0.868,1.421,0.895,1.655,1.152,0.483,0.852,0.812,��,9.0,��
2018/04/29,19:40,0.866,1.423,0.898,1.653,1.151,0.483,0.852,0.813,��,8.8,��
2018/04/29,19:50,0.864,1.425,0.894,1.653,1.149,0.483,0.852,0.812,��,8.7,��
2018/04/29,20:00,0.867,1.424,0.898,1.654,1.150,0.483,0.852,0.813,��,8.4,��
2018/04/29,20:10,0.866,1.423,0.896,1.654,1.149,0.483,0.852,0.814,��,8.3,��
2018/04/29,20:20,0.868,1.426,0.897,1.657,1.149,0.484,0.853,0.811,��,9.2,��
2018/04/29,20:30,0.868,1.425,0.896,1.653,1.148,0.483,0.853,0.812,��,8.8,��
2018/04/29,20:40,0.868,1.423,0.897,1.655,1.149,0.485,0.850,0.812,��,9.5,��
2018/04/29,20:50,0.866,1.422,0.898,1.654,1.150,0.483,0.851,0.813,��,8.3,��
2018/04/29,21:00,0.870,1.423,0.898,1.654,1.152,0.484,0.851,0.812,��,8.8,��
2018/04/29,21:10,0.868,1.424,0.897,1.656,1.146,0.484,0.852,0.812,��,9.6,��
2018/04/29,21:20,0.867,1.423,0.897,1.653,1.150,0.484,0.850,0.813,��,9.2,��
2018/04/29,21:30,0.868,1.424,0.898,1.652,1.150,0.486,0.852,0.812,��,9.5,��
2018/04/29,21:40,0.866,1.424,0.897,1.654,1.151,0.485,0.851,0.812,��,8.9,��
2018/04/29,21:50,0.868,1.423,0.897,1.655,1.149,0.484,0.851,0.811,��,7.9,��
2018/04/29,22:00,0.869,1.421,0.898,1.654,1.150,0.485,0.851,0.812,��,8.9,��
2018/04/29,22:10,0.868,1.420,0.898,1.652,1.151,0.486,0.851,0.811,��,9.1,��
2018/04/29,22:20,0.867,1.423,0.897,1.655,1.148,0.485,0.853,0.811,��,8.7,��
2018/04/29,22:30,0.866,1.424,0.898,1.652,1.150,0.485,0.851,0.811,��,8.6,��
2018/04/29,22:40,0.866,1.424,0.896,1.653,1.150,0.486,0.850,0.811,��,8.2,��
2018/04/29,22:50,0.866,1.425,0.898,1.654,1.150,0.486,0.851,0.810,��,7.9,��
2018/04/29,23:00,0.869,1.424,0.897,1.653,1.151,0.485,0.853,0.813,��,8.9,��
2018/04/29,23:10,0.867,1.424,0.896,1.651,1.148,0.485,0.853,0.812,��,7.2,��
2018/04/29,23:20,0.868,1.421,0.897,1.652,1.148,0.485,0.852,0.812,��,4.1,��
2018/04/29,23:30,0.866,1.421,0.897,1.654,1.150,0.484,0.850,0.811,��쐼,2.2,��
2018/04/29,23:40,0.864,1.425,0.898,1.652,1.150,0.484,0.852,0.811,��쐼,3.4,��
2018/04/29,23:50,0.865,1.420,0.895,1.650,1.148,0.484,0.849,0.814,��,5.4,��
